| time (UTC) | temp C | wind direction | speed KPH | gust KPH | rain 1hr cm | rain 24hr cm | rain mn cm | humidity % | barometer mb |
| 20260504041500 | 7 | 192 | 3.2 | 0.0 | 0.00 | 0.00 | 0.00 | 78 | 1006.5 |
| 20260504040058 | 7 | 269 | 4.8 | 0.0 | 0.00 | 0.00 | 0.00 | 77 | 1006.4 |
| 20260504034558 | 7 | 217 | 3.2 | 0.0 | 0.00 | 0.00 | 0.00 | 76 | 1006.4 |
| 20260504033056 | 7 | 207 | 3.2 | 0.0 | 0.00 | 0.00 | 0.00 | 75 | 1006.6 |
| 20260504031556 | 7 | 179 | 4.8 | 0.0 | 0.00 | 0.00 | 0.00 | 72 | 1006.5 |
| 20260504030055 | 7 | 209 | 3.2 | 0.0 | 0.00 | 0.00 | 0.00 | 71 | 1006.5 |
| 20260504024609 | 7 | 203 | 4.8 | 0.0 | 0.00 | 0.00 | 0.00 | 69 | 1006.7 |
| 20260504023055 | 7 | 230 | 4.8 | 0.0 | 0.00 | 0.00 | 0.00 | 68 | 1006.7 |
| 20260504021554 | 7 | 223 | 6.4 | 0.0 | 0.00 | 0.00 | 0.00 | 69 | 1006.9 |
| 20260504020055 | 7 | 219 | 6.4 | 0.0 | 0.00 | 0.00 | 0.00 | 69 | 1006.9 |
| 20260504014601 | 8 | 186 | 6.4 | 0.0 | 0.00 | 0.00 | 0.00 | 70 | 1007.0 |
| 20260504013056 | 8 | 202 | 4.8 | 0.0 | 0.00 | 0.00 | 0.00 | 69 | 1007.0 |
| 20260504011552 | 8 | 182 | 3.2 | 0.0 | 0.00 | 0.00 | 0.00 | 68 | 1006.8 |
| 20260504010100 | 9 | 236 | 6.4 | 0.0 | 0.00 | 0.00 | 0.00 | 67 | 1006.8 |
| 20260504004551 | 9 | 214 | 4.8 | 0.0 | 0.00 | 0.00 | 0.00 | 66 | 1006.6 |
| 20260504003054 | 10 | 229 | 4.8 | 0.0 | 0.00 | 0.00 | 0.00 | 64 | 1006.6 |
| 20260504001550 | 10 | 245 | 6.4 | 0.0 | 0.00 | 0.00 | 0.00 | 61 | 1006.5 |
| 20260504000116 | 10 | 286 | 11.3 | 0.0 | 0.00 | 0.00 | 0.00 | 56 | 1006.5 |
| 20260503234556 | 11 | 227 | 9.7 | 0.0 | 0.00 | 0.00 | 0.00 | 50 | 1006.4 |
| 20260503233049 | 11 | 237 | 9.7 | 0.0 | 0.00 | 0.00 | 0.00 | 47 | 1006.4 |
| 20260503231548 | 11 | 183 | 9.7 | 0.0 | 0.00 | 0.00 | 0.00 | 45 | 1006.4 |
| 20260503230049 | 11 | 319 | 8.0 | 0.0 | 0.00 | 0.00 | 0.00 | 45 | 1006.6 |
| 20260503224547 | 11 | 280 | 8.0 | 0.0 | 0.00 | 0.00 | 0.00 | 44 | 1006.5 |
| 20260503223048 | 12 | 290 | 8.0 | 0.0 | 0.00 | 0.00 | 0.00 | 43 | 1006.5 |
| 20260503221553 | 12 | 207 | 8.0 | 0.0 | 0.00 | 0.00 | 0.00 | 43 | 1006.5 |
| 20260503220045 | 12 | 199 | 8.0 | 0.0 | 0.00 | 0.00 | 0.00 | 43 | 1006.4 |
| 20260503214545 | 13 | 259 | 8.0 | 0.0 | 0.00 | 0.00 | 0.00 | 43 | 1006.5 |
| 20260503213045 | 12 | 295 | 8.0 | 0.0 | 0.00 | 0.00 | 0.00 | 44 | 1006.4 |
| 20260503211541 | 13 | 272 | 8.0 | 0.0 | 0.00 | 0.00 | 0.00 | 43 | 1006.5 |
| 20260503210041 | 13 | 284 | 9.7 | 0.0 | 0.00 | 0.00 | 0.00 | 43 | 1006.6 |
| 20260503204538 | 13 | 203 | 9.7 | 0.0 | 0.00 | 0.00 | 0.00 | 41 | 1006.8 |
| 20260503203055 | 13 | 323 | 8.0 | 0.0 | 0.00 | 0.00 | 0.00 | 42 | 1006.8 |
| 20260503201537 | 14 | 291 | 8.0 | 0.0 | 0.00 | 0.00 | 0.00 | 41 | 1007.0 |
| 20260503200036 | 13 | 272 | 8.0 | 0.0 | 0.00 | 0.00 | 0.00 | 41 | 1007.1 |
| 20260503194537 | 13 | 214 | 8.0 | 0.0 | 0.00 | 0.00 | 0.00 | 39 | 1007.2 |
| 20260503193032 | 13 | 242 | 8.0 | 0.0 | 0.00 | 0.00 | 0.00 | 39 | 1007.7 |
| 20260503191530 | 13 | 194 | 8.0 | 0.0 | 0.00 | 0.00 | 0.00 | 38 | 1007.8 |
| 20260503190035 | 13 | 277 | 6.4 | 0.0 | 0.00 | 0.00 | 0.00 | 40 | 1008.0 |
| 20260503184526 | 13 | 247 | 9.7 | 0.0 | 0.00 | 0.00 | 0.00 | 33 | 1008.1 |
| 20260503183028 | 13 | 263 | 6.4 | 0.0 | 0.00 | 0.00 | 0.00 | 34 | 1008.3 |
| 20260503181525 | 13 | 259 | 8.0 | 0.0 | 0.00 | 0.00 | 0.00 | 35 | 1008.5 |
| 20260503180026 | 12 | 250 | 8.0 | 0.0 | 0.00 | 0.00 | 0.00 | 35 | 1008.7 |
| 20260503174518 | 13 | 239 | 8.0 | 0.0 | 0.00 | 0.00 | 0.00 | 35 | 1008.8 |
| 20260503173035 | 13 | 254 | 8.0 | 0.0 | 0.00 | 0.00 | 0.00 | 35 | 1009.0 |
| 20260503171513 | 13 | 284 | 6.4 | 0.0 | 0.00 | 0.00 | 0.00 | 38 | 1009.2 |
| 20260503081533 | 3 | 277 | 1.6 | 0.0 | 0.00 | 0.00 | 0.00 | 72 | 1011.8 |
| 20260503071525 | 3 | 282 | 1.6 | 0.0 | 0.00 | 0.00 | 0.00 | 69 | 1011.8 |
| 20260503054515 | 4 | 298 | 1.6 | 0.0 | 0.00 | 0.00 | 0.00 | 66 | 1012.1 |
| 20260503053011 | 4 | 263 | 1.6 | 0.0 | 0.00 | 0.00 | 0.00 | 64 | 1012.1 |
| 20260503051506 | 5 | 277 | 0.0 | 0.0 | 0.00 | 0.00 | 0.00 | 64 | 1012.3 |
| 20260503050005 | 5 | 279 | 1.6 | 0.0 | 0.00 | 0.00 | 0.00 | 64 | 1012.3 |
| 20260503044504 | 5 | 280 | 3.2 | 0.0 | 0.00 | 0.00 | 0.00 | 63 | 1012.4 |
| 20260503043002 | 5 | 298 | 3.2 | 0.0 | 0.00 | 0.00 | 0.00 | 62 | 1012.5 |